Flag for El Salvador Weather past 2 weeks in San Salvador, El Salvador

Now
70 °F

Passing clouds.


Feels Like: 70 °F
Forecast: 68 / 85 °F
Wind: 3 mph from North

Location: San Salvador / Ilopango

Current Time: Aug 21, 2014 at 2:41:29 AM

Latest Report: Aug 20, 2014 at 11:50 PM


Visibility: N/A

Pressure: 30.07 "Hg

Humidity: 94%

Dew point: 68 °F

Location of San SalvadorLocation

Historic Weather in San Salvador — Graph

°F

San Salvador temperature yesterday

Maximum temperature yesterday: 84 °F (at 2:50 PM)
Minimum temperature yesterday: 68 °F (at 5:50 AM)
Average temperature yesterday: 74 °F

Past Weeks' High & Low Weather Summary

 TemperatureHumidityPressure
High91 °F (Aug 18, 2:50 PM)100% (Aug 6, 5:50 AM)30.09 "Hg (Aug 6, 5:50 AM)
Low64 °F (Aug 15, 5:57 AM)52% (Aug 13, 3:50 PM)29.86 "Hg (Aug 19, 5:50 PM)
Average78 °F81%29.99 "Hg
* Reported Aug 6 5:50 AM — Aug 20 11:50 PM, San Salvador, Weather by CustomWeather, © 2014

Note: Actual official high and low records may vary slightly from our data, if they occured in-between our weather recording intervals... More about our weather records

Advertising

San Salvador weather history for previous 24 hours

 ConditionsComfort  
Time TempWeatherWind HumidityBarometerVisibility
11:50 PM
Aug 20
70 °FPassing clouds.3 mph94%30.07 "HgN/A
10:50 PM70 °FPassing clouds.2 mph100%30.07 "HgN/A
9:50 PM70 °FPassing clouds.3 mph100%30.07 "HgN/A
8:50 PM70 °FPassing clouds.3 mph94%30.04 "HgN/A
7:50 PM72 °FClear.5 mph94%30.04 "Hg10 mi
6:50 PM72 °FClear.5 mph94%29.98 "Hg10 mi
5:50 PM70 °FSunny.2 mph94%29.98 "Hg10 mi
4:50 PM77 °FThunderstorms. Broken clouds.16 mph79%29.98 "Hg2 mi
3:50 PM84 °FScattered clouds.9 mph66%29.98 "HgN/A
2:50 PM84 °FScattered clouds.7 mph66%29.98 "HgN/A
1:50 PM82 °FScattered clouds.7 mph66%29.98 "HgN/A
12:50 PM81 °FSunny.7 mph74%30.01 "Hg10 mi
11:50 AM77 °FSunny.2 mph83%30.01 "Hg10 mi
10:50 AM81 °FPassing clouds.7 mph74%30.01 "HgN/A
9:50 AM79 °FPassing clouds.6 mph84%30.01 "HgN/A
8:50 AM72 °FSunny.7 mph94%30.04 "Hg10 mi
7:50 AM70 °FSunny.5 mph100%30.01 "Hg10 mi
6:50 AM68 °FSunny.3 mph94%29.98 "Hg10 mi
5:50 AM68 °FSunny.2 mph94%29.98 "Hg10 mi
Weather by CustomWeather, © 2014

See weather overviewHow to use our weather pages